User: anonymous   Login
Location: Bremen
(53.0793°N, 8.8017°E)
Time: 11:53:14
(UTC+02:00)
Language:

Transit 2A - Orbit

View from above orbital plane
View from above orbital plane
View from above satellite
View from above satellite

Ground track
Ground track

The orbit data is extracted from the following two-line orbital elements,

1 00045U 60007A   24110.84720186  .00000974  00000-0  26725-3 0  9991
2 00045  66.6932 283.5840 0251098  12.7567 347.9729 14.34653535266909
Epoch (UTC): 19 April 2024 20:19:58
Eccentricity: 0.0251098
inclination: 66.6932°
perigee height: 596 km
apogee height: 956 km
right ascension of ascending node: 283.5840°
argument of perigee: 12.7567°
revolutions per day: 14.34653535
mean anomaly at epoch: 347.9729°
orbit number at epoch: 26690

The dashed part of the orbit path shows where the satellite is in the earth's shadow,  

DLR